Weather History for KESC - December, 2010

Change the Weather History Date:

Friday, December 10, 2010

  Actual Average Record
Temperature  
Mean Temperature 26 °F -  
Max Temperature 30 °F 30 °F 43 °F (1971)
Min Temperature 19 °F 17 °F -4 °F (1958)
Degree Days  
Heating Degree Days 40    
Moisture  
Dew Point 19 °F    
Average Humidity 74    
Maximum Humidity 80    
Minimum Humidity 59    
Precipitation  
Precipitation 0.00 in - - ()
Sea Level Pressure  
Sea Level Pressure 29.79 in    
Wind  
Wind Speed 10 mph (WSW)    
Max Wind Speed 17 mph    
Max Gust Speed 22 mph    
Visibility 7 miles    
Events      
Averages and records for this station are not official NWS values.
T = Trace of Precipitation, MM = Missing Value Source: NWS Daily Summary

Daily Weather History Graph

Daily Weather History Graph

Search for Another Location

Airport or City:

Trip Planner

Search our weather history database for the weather conditions in past years. The results will help you decide how hot, cold, wet, or windy it might be!

Date:

Astronomy

Dec. 10, 2010 Rise Set
Actual Time 8:18 AM EST 5:04 PM EST
Civil Twilight 7:44 AM EST 5:38 PM EST
Nautical Twilight 7:06 AM EST 6:15 PM EST
Astronomical Twilight 6:30 AM EST 6:51 PM EST
Moon 11:36 AM EST (12/10) 10:19 PM EST (12/10)
Length of Visible Light 9h 54m
Length of Day
8h 45m
Waxing Crescent, 24% of the Moon is Illuminated
Dec 10
Waxing Crescent
Dec 13
First Quarter
Dec 21
Full
Dec 27
Last Quarter
Jan 4
New

Hourly Weather History & Observations

Time (EST) Temp. Windchill Dew Point Humidity Pressure Visibility Wind Dir Wind Speed Gust Speed Precip Events Conditions
12:15 AM 26.6 °F 13.8 °F 21.2 °F 80% 29.78 in 10.0 mi SW 17.3 mph 21.9 mph N/A   Overcast
12:35 AM 26.6 °F 15.7 °F 21.2 °F 80% 29.77 in 7.0 mi SSW 12.7 mph 17.3 mph N/A   Overcast
12:55 AM 26.6 °F 15.2 °F 21.2 °F 80% 29.76 in 5.0 mi SW 13.8 mph 20.7 mph N/A   Overcast
1:15 AM 26.6 °F 15.7 °F 21.2 °F 80% 29.75 in 7.0 mi SSW 12.7 mph - N/A   Overcast
1:35 AM 26.6 °F 16.8 °F 21.2 °F 80% 29.75 in 6.0 mi SW 10.4 mph - N/A   Overcast
1:55 AM 26.6 °F 16.8 °F 21.2 °F 80% 29.74 in 3.0 mi SW 10.4 mph 16.1 mph N/A   Overcast
2:15 AM 26.6 °F 15.2 °F 21.2 °F 80% 29.73 in 3.0 mi SW 13.8 mph 19.6 mph N/A   Overcast
2:35 AM 26.6 °F 15.7 °F 21.2 °F 80% 29.73 in 2.5 mi SW 12.7 mph 18.4 mph N/A   Overcast
2:55 AM 26.6 °F 18.2 °F 21.2 °F 80% 29.74 in 1.8 mi SSW 8.1 mph - N/A   Overcast
3:15 AM 26.6 °F 15.7 °F 21.2 °F 80% 29.73 in 2.0 mi SSW 12.7 mph 17.3 mph N/A   Overcast
3:35 AM 26.6 °F 15.7 °F 21.2 °F 80% 29.72 in 4.0 mi SSW 12.7 mph 18.4 mph N/A   Overcast
3:55 AM 26.6 °F 16.2 °F 21.2 °F 80% 29.71 in 5.0 mi SSW 11.5 mph 19.6 mph N/A   Overcast
4:15 AM 26.6 °F 15.2 °F 21.2 °F 80% 29.71 in 5.0 mi SW 13.8 mph 18.4 mph N/A   Overcast
4:35 AM 26.6 °F 15.7 °F 21.2 °F 80% 29.70 in 4.0 mi SW 12.7 mph 18.4 mph N/A   Overcast
5:15 AM 26.6 °F 16.8 °F 21.2 °F 80% 29.69 in 4.0 mi WSW 10.4 mph - N/A   Overcast
5:35 AM 26.6 °F 17.5 °F 21.2 °F 80% 29.69 in 4.0 mi WSW 9.2 mph - N/A   Overcast
5:55 AM 26.6 °F 18.2 °F 21.2 °F 80% 29.69 in 4.0 mi WSW 8.1 mph - N/A   Overcast
6:15 AM 26.6 °F 17.5 °F 21.2 °F 80% 29.69 in 4.0 mi WSW 9.2 mph - N/A   Overcast
6:35 AM 26.6 °F 17.5 °F 21.2 °F 80% 29.69 in 5.0 mi SW 9.2 mph - N/A   Overcast
6:55 AM 26.6 °F 19.1 °F 21.2 °F 80% 29.69 in 4.0 mi SW 6.9 mph - N/A   Overcast
7:35 AM 26.6 °F 19.1 °F 21.2 °F 80% 29.70 in 4.0 mi WSW 6.9 mph - N/A   Overcast
7:55 AM 26.6 °F 20.0 °F 21.2 °F 80% 29.70 in 4.0 mi WSW 5.8 mph - N/A   Overcast
8:15 AM 26.6 °F 20.0 °F 21.2 °F 80% 29.71 in 3.0 mi WSW 5.8 mph - N/A   Overcast
8:35 AM 26.6 °F 19.1 °F 21.2 °F 80% 29.72 in 3.0 mi WSW 6.9 mph - N/A   Overcast
8:55 AM 26.6 °F 19.1 °F 21.2 °F 80% 29.72 in 3.0 mi SW 6.9 mph - N/A   Overcast
9:15 AM 28.4 °F 20.4 °F 21.2 °F 74% 29.73 in 3.0 mi SW 8.1 mph - N/A   Overcast
9:35 AM 28.4 °F 21.2 °F 21.2 °F 74% 29.72 in 3.0 mi SW 6.9 mph - N/A   Overcast
9:55 AM 28.4 °F 21.2 °F 21.2 °F 74% 29.72 in 3.0 mi SW 6.9 mph - N/A   Overcast
10:15 AM 28.4 °F 19.7 °F 21.2 °F 74% 29.73 in 3.0 mi SW 9.2 mph - N/A   Overcast
10:35 AM 28.4 °F 21.2 °F 23.0 °F 80% 29.74 in 3.0 mi SW 6.9 mph - N/A   Overcast
10:55 AM 28.4 °F 22.2 °F 23.0 °F 80% 29.75 in 3.0 mi SW 5.8 mph - N/A   Overcast
11:15 AM 28.4 °F 22.2 °F 23.0 °F 80% 29.75 in 4.0 mi SW 5.8 mph - N/A   Overcast
11:35 AM 28.4 °F 21.2 °F 23.0 °F 80% 29.75 in 4.0 mi SW 6.9 mph - N/A   Overcast
11:55 AM 28.4 °F 22.2 °F 23.0 °F 80% 29.75 in 4.0 mi WSW 5.8 mph - N/A   Overcast
12:15 PM 28.4 °F 20.4 °F 23.0 °F 80% 29.76 in 5.0 mi WSW 8.1 mph - N/A   Overcast
12:35 PM 30.2 °F 22.6 °F 21.2 °F 69% 29.76 in 5.0 mi West 8.1 mph - N/A   Overcast
12:55 PM 30.2 °F 22.6 °F 21.2 °F 69% 29.76 in 8.0 mi WNW 8.1 mph - N/A   Overcast
1:15 PM 30.2 °F 21.3 °F 21.2 °F 69% 29.77 in 10.0 mi West 10.4 mph - N/A   Overcast
1:35 PM 30.2 °F 22.6 °F 19.4 °F 64% 29.77 in 10.0 mi WNW 8.1 mph - N/A   Overcast
1:55 PM 28.4 °F 21.2 °F 21.2 °F 74% 29.79 in 10.0 mi NNW 6.9 mph - N/A   Overcast
2:15 PM 28.4 °F 21.2 °F 19.4 °F 69% 29.79 in 10.0 mi NW 6.9 mph - N/A   Overcast
2:35 PM 28.4 °F 23.3 °F 19.4 °F 69% 29.80 in 10.0 mi NW 4.6 mph - N/A   Overcast
2:55 PM 28.4 °F 23.3 °F 19.4 °F 69% 29.81 in 10.0 mi WNW 4.6 mph - N/A   Overcast
3:15 PM 28.4 °F 20.4 °F 19.4 °F 69% 29.81 in 10.0 mi WNW 8.1 mph - N/A   Overcast
3:35 PM 28.4 °F 17.0 °F 19.4 °F 69% 29.82 in 10.0 mi West 15.0 mph 18.4 mph N/A   Overcast
3:55 PM 28.4 °F 18.5 °F 17.6 °F 64% 29.84 in 10.0 mi West 11.5 mph - N/A   Overcast
4:15 PM 28.4 °F 19.7 °F 17.6 °F 64% 29.85 in 10.0 mi West 9.2 mph - N/A   Overcast
4:35 PM 26.6 °F 16.2 °F 17.6 °F 69% 29.86 in 10.0 mi WNW 11.5 mph - N/A   Overcast
4:55 PM 26.6 °F 18.2 °F 15.8 °F 64% 29.86 in 10.0 mi West 8.1 mph - N/A   Overcast
5:15 PM 26.6 °F 19.1 °F 15.8 °F 64% 29.88 in 10.0 mi WNW 6.9 mph - N/A   Overcast
5:35 PM 26.6 °F 16.8 °F 17.6 °F 69% 29.88 in 10.0 mi WNW 10.4 mph - N/A   Overcast
5:55 PM 26.6 °F 19.1 °F 14.0 °F 59% 29.89 in 10.0 mi WNW 6.9 mph - N/A   Overcast
6:15 PM 26.6 °F 19.1 °F 15.8 °F 64% 29.90 in 10.0 mi NW 6.9 mph - N/A   Overcast
6:35 PM 24.8 °F 20.5 °F 15.8 °F 69% 29.91 in 10.0 mi NW 3.5 mph - N/A   Overcast
6:55 PM 24.8 °F 17.9 °F 14.0 °F 64% 29.92 in 10.0 mi NW 5.8 mph - N/A   Mostly Cloudy
7:15 PM 23.0 °F 17.0 °F 12.2 °F 63% 29.93 in 10.0 mi WNW 4.6 mph - N/A   Partly Cloudy
7:35 PM 21.2 °F 14.9 °F 12.2 °F 68% 29.94 in 10.0 mi NW 4.6 mph - N/A   Mostly Cloudy
7:55 PM 21.2 °F 16.4 °F 12.2 °F 68% 29.96 in 10.0 mi NW 3.5 mph - N/A   Overcast
8:15 PM 23.0 °F 17.0 °F 12.2 °F 63% 29.97 in 10.0 mi NW 4.6 mph - N/A   Overcast
8:35 PM 23.0 °F 15.8 °F 12.2 °F 63% 29.97 in 10.0 mi NNW 5.8 mph - N/A   Overcast
8:55 PM 21.2 °F 13.6 °F 12.2 °F 68% 29.97 in 10.0 mi North 5.8 mph - N/A   Mostly Cloudy
9:15 PM 21.2 °F 16.4 °F 10.4 °F 63% 29.99 in 10.0 mi NNW 3.5 mph - N/A   Partly Cloudy
9:35 PM 19.4 °F - 10.4 °F 68% 30.00 in 10.0 mi Calm Calm - N/A   Mostly Cloudy
9:55 PM 19.4 °F 12.8 °F 10.4 °F 68% 30.00 in 10.0 mi North 4.6 mph - N/A   Mostly Cloudy
10:15 PM 17.6 °F 12.3 °F 10.4 °F 73% 29.99 in 10.0 mi North 3.5 mph - N/A   Partly Cloudy
10:35 PM 15.8 °F - 6.8 °F 68% 30.00 in 10.0 mi Calm Calm - N/A   Clear
10:55 PM 12.2 °F 6.1 °F 6.8 °F 79% 30.01 in 10.0 mi West 3.5 mph - N/A   Clear
11:15 PM 12.2 °F 6.1 °F 6.8 °F 79% 30.02 in 10.0 mi WNW 3.5 mph - N/A   Clear
11:35 PM 15.8 °F 8.6 °F 8.6 °F 73% 30.03 in 10.0 mi NW 4.6 mph - N/A   Clear
11:55 PM 10.4 °F 2.2 °F 3.2 °F 73% 30.04 in 10.0 mi WNW 4.6 mph - N/A   Clear